This is the latest recevied weather packets stored in our database for station/object NW6UP. If no packets are shown the sender has not sent any weather packets the latest 1 day(s).
| Time | Temp. | Humidity | Pressure | Rain* | Wind** | Luminosity | Snow |
|---|---|---|---|---|---|---|---|
| 1836274485 | 19.44° C | 80% | 1012.8 hPa | 0 mm | 0 m/s | - | - |
| 1836274038 | 19.44° C | 80% | 1012.6 hPa | 0 mm | 0 m/s | - | - |
| 1778046265 | 15° C | 73% | 0 hPa | 0 mm | 0 m/s | - | - |
| 1778045065 | 15° C | 72% | 1016.8 hPa | 0 mm | 0 m/s | - | - |
| 1778042665 | 15° C | 70% | 1016.4 hPa | 0 mm | 0 m/s | - | - |
| 1778041466 | 15.56° C | 69% | 1016.1 hPa | 0 mm | 0 m/s | - | - |
| 1778040266 | 15.56° C | 68% | 1016 hPa | 0 mm | 0 m/s | - | - |
| 1778039068 | 15.56° C | 68% | 1015.5 hPa | 0 mm | 0 m/s | - | - |
| 1778037865 | 16.11° C | 68% | 1015.4 hPa | 0 mm | 0 m/s | - | - |
| 1778036666 | 16.11° C | 67% | 1015.4 hPa | 0 mm | 0 m/s | - | - |
| 1778035467 | 16.11° C | 66% | 0 hPa | 0 mm | 0 m/s | - | - |
| 1778034265 | 16.67° C | 66% | 0 hPa | 0 mm | 0 m/s | - | - |
| 1778033066 | 16.67° C | 66% | 0 hPa | 0 mm | 0 m/s | - | - |
| 1778031865 | 17.22° C | 65% | 0 hPa | 0 mm | 0 m/s | - | - |
| 1778030666 | 17.22° C | 64% | 1015.2 hPa | 0 mm | 0 m/s | - | - |
| 1778029465 | 17.78° C | 62% | 0 hPa | 0 mm | 0 m/s | - | - |
| 1778028266 | 18.33° C | 61% | 0 hPa | 0 mm | 0 m/s | - | - |
| 1778027066 | 18.33° C | 60% | 1014.9 hPa | 0 mm | 0 m/s | - | - |
| 1778025866 | 18.33° C | 59% | 0 hPa | 0 mm | 0.89 m/s, 180° | - | - |
| 1778024666 | 18.33° C | 58% | 1015 hPa | 0 mm | 0 m/s | - | - |
| 1778023465 | 18.89° C | 58% | 0 hPa | 0 mm | 0 m/s | - | - |
| 1778022265 | 18.89° C | 58% | 0 hPa | 0 mm | 0 m/s | - | - |
| 1778021065 | 18.33° C | 58% | 1015.3 hPa | 0 mm | 0 m/s | - | - |
| 1778019865 | 18.33° C | 59% | 1015.4 hPa | 0 mm | 0 m/s | - | - |
| 1778018666 | 18.33° C | 59% | 0 hPa | 0 mm | 0 m/s | - | - |
* Rain latest hour (hover to see other rain measurements)
** Current wind speed in m/s (hover to see current wind gust speed)